Regional Weather Roundup
Issued by NWS Pendleton, OR

Home | Current Version | Previous Version | Text Only | Print | Product List | Glossary On
Versions: 1 2 3 4 5 6 7 8 9 10 11 12 13 14 15 16 17 18 19 20 21 22 23 24 25 26 27 28 29 30 31 32 33 34 35 36 37 38 39 40 41 42 43 44 45 46 47 48 49 50
680
ASUS46 KPDT 110625
RWRPDT
PENDLETON REGIONAL WEATHER ROUNDUP
NATIONAL WEATHER SERVICE PENDLETON OREGON
1000 PM PST SUN DEC 10 2017

NOTE: FAIR INDICATES FEW OR NO CLOUDS BELOW 12,000 FEET WITH NO
SIGNIFICANT WEATHER AND/OR OBSTRUCTIONS TO VISIBILITY.

# INDICATES UNOFFICIAL STATION AND DATA

WAZ520-110710-
EAST SLOPES OF WASHINGTON CASCADES

CITY            SKY/WX      TMP DP  RH  WIND    PRES   REMARKS
#BULLFROG       N/A         26  22  85  E1      N/A
#CLE ELUM HS    N/A         26  22  85  E3      30.53S
#CLE ELUM LAKE  N/A         22  20  92  CALM    30.62R
#EASTON DOT     N/A         23  21  92  N9      N/A
#ELK HTS DOT    N/A         25  25  100 NE2     N/A
#GLENWOOD       N/A         27  23  85  N1      30.70S
#NELSON 3SW     N/A         21  20  96  CALM    30.93S
#NILE           N/A         25  22  88  CALM    29.95R
#TEANAWAY 4NE   N/A         26  23  88  CALM    N/A
#TROUT LAKE 1NE N/A         26  23  88  SE3     30.69S
#TROUT LAKE 1E  N/A         26  23  88  CALM    30.60S
$$

WAZ521-110710-
SIMCOE HIGHLANDS

CITY            SKY/WX      TMP DP  RH  WIND    PRES   REMARKS
#BICKLETON HS   N/A         N/A N/A N/A NE3     30.52F
#CENTERVILLE 1SWN/A         26  21  81  E3      30.68R
#GOLDENDALE 4W  N/A         27  11  50  SE2     30.63S
#GOODNOE HILLS  N/A         28  21  75  E10     30.54R
#LYLE 6NE       N/A         27  25  92  NE1     30.72R
#PITT 4SE       N/A         23  22  96  CALM    30.75R
$$

WAZ026-110710-
KITTITAS VALLEY

CITY            SKY/WX      TMP DP  RH  WIND    PRES   REMARKS
ELLENSBURG AP   N/A         N/A N/A N/A MISG    30.63R
#ELLENSBURG CWU N/A         28  24  85  CALM    30.66S
#ELLENSBURG 3NE N/A         27  23  85  N2      28.68R
#ELLENSBURG 1E  N/A         28  24  85  CALM    30.76S
#KITTITAS 3S    N/A         29  25  85  NE1     30.70S
#MANASTASH RDG  N/A         24  24  100 N1      N/A
#RYEGRASS DOT   N/A         24  23  96  E3      N/A
$$

WAZ027-110710-
YAKIMA VALLEY

CITY            SKY/WX      TMP DP  RH  WIND    PRES   REMARKS
SUNNYSIDE AP    CLOUDY      30  26  85  CALM    30.70R
YAKIMA AIRPORT  CLOUDY      33  24  69  CALM    30.68R
6HR MIN TEMP:   32; 6HR MAX TEMP:   33;

YAKIMA-VAGABOND CLOUDY      29  24  81  CALM    30.64R
6HR MIN TEMP:   29; 6HR MAX TEMP:   29;

#DONALD 2NE     N/A         30  14  51  W1      29.52R
#GRANDVIEW      N/A         30  24  78  CALM    30.66S
#MABTON         N/A         31  28  88  CALM    30.70R
#MOXEE 2E       N/A         29  N/A N/A CALM    30.63S
#NACHES 2SW     N/A         27  24  88  CALM    30.62S
#OUTLOOK DOT    N/A         31  27  85  CALM    30.66R
#PARKER DOT     N/A         31  25  78  CALM    30.68R
#TERRACE HTS    N/A         29  25  85  CALM    30.70S
#TOPPENISH      N/A         31  26  81  CALM    30.65R
#I82 S UMTANUM RN/A         27  23  85  NE3     N/A
#UNION GAP DOT  N/A         31  25  78  CALM    30.72R
#W YAKIMA       N/A         29  24  81  CALM    30.74R
#WHITE SWAN 5E  N/A         30  26  85  CALM    30.75R
#WILEY CITY 3W  N/A         28  22  78  CALM    30.62R
#ZILLAH DOT     N/A         31  26  81  CALM    N/A
$$

WAZ028-110710-
LOWER COLUMBIA BASIN...WASHINGTON

CITY            SKY/WX      TMP DP  RH  WIND    PRES   REMARKS
HANFORD         CLOUDY      30  26  85  E3      30.69
6HR MIN TEMP:   30; 6HR MAX TEMP:   31;

PASCO           CLOUDY      32  26  78  CALM    30.72R
6HR MIN TEMP:   31; 6HR MAX TEMP:   32;

PROSSER AWOS    N/A         30  28  92  CALM    30.73R
RICHLAND AWOS   CLOUDY      32  28  85  MISG    30.72S
#BENTON CITY    N/A         30  26  85  CALM    30.64R
#CONNELL 5N     N/A         28  25  88  CALM    30.73R
#CONNELL 5NW    N/A         28  25  88  CALM    30.67S
#ELTOPIA 6NW    N/A         29  26  88  CALM    29.63S
#KAHLOTUS       N/A         27  24  88  CALM    30.72S
#KENNEWICK 3S   N/A         30  26  85  CALM    30.74R
#PATERSON       N/A         31  26  81  CALM    30.71S
#PROSSER DOT    N/A         31  27  85  CALM    30.71S
#TOUCHET 2S     N/A         30  27  88  CALM    30.71R
#WEST PASCO     N/A         34  30  85  CALM    30.87S
$$

WAZ029-110710-
FOOTHILLS OF THE BLUES...WASHINGTON

CITY            SKY/WX      TMP DP  RH  WIND    PRES   REMARKS
WALLA WALLA AP  CLOUDY      30  24  78  E5      30.65R
6HR MIN TEMP:   29; 6HR MAX TEMP:   30;

#CLYDE 6NW      N/A         27  24  88  CALM    30.70S
#DAYTON SCHOOL  N/A         26  18  71  CALM    30.61R
#DELANEY DOT    N/A         29  24  81  CALM    30.68S
#LOWDEN 2SE     N/A         30  27  88  CALM    30.67R
#PLEASANT VIEW 1N/A         24  23  96  CALM    30.77S
#PRESCOTT       N/A         30  26  85  CALM    30.71S
#WHITMAN COLLEGEN/A         29  25  85  NW1     30.71R
#WAITSBURG 5S   N/A         25  23  92  E1      30.83R
#WAITSBURG 6SSE N/A         25  21  84  SE1     30.71S
#WALLA WALLA 5E N/A         29  26  88  SE2     N/A
#WHITMAN MISSIONN/A         31  27  85  CALM    30.74R
$$

WAZ030-110710-
BLUE MOUNTAINS...WASHINGTON

CITY            SKY/WX      TMP DP  RH  WIND    PRES   REMARKS
$$

ORZ009-041-WAZ024-110710-
COLUMBIA RIVER GORGE

CITY            SKY/WX      TMP DP  RH  WIND    PRES   REMARKS
HOOD RIVER AP   CLOUDY      32  27  82  E9      30.67R
THE DALLES AP   CLOUDY      34  25  69  E12     30.70S WCI 25
6HR MIN TEMP:   34; 6HR MAX TEMP:   34;

#ARLINGTON AIRPON/A         30  26  85  NE8     30.74R
#ARLINGTON HS   N/A         32  24  72  SE2     30.63S
#CELILO DOT     N/A         34  22  61  NE1     N/A
#LYLE           N/A         34  28  78  SE2     30.72S
#MARYHILL       N/A         30  24  78  N5      N/A
#MURDOCK        N/A         33  27  78  SE3     30.68R
#RUFUS DOT      N/A         34  N/A N/A SE12    N/A    WCI 25
#SMITHVILLE     N/A         33  27  78  E7      30.66S

$$

ORZ510-110710-
NORTH CENTRAL OREGON

CITY            SKY/WX      TMP DP  RH  WIND    PRES   REMARKS
#ANTELOPE       N/A         21  19  92  CALM    30.61R
#CHENOWITH 1W   N/A         25  23  92  E9      N/A
#COW CYN RST AREN/A         20  N/A N/A NE2     N/A
#DUFUR          N/A         27  24  88  E5      30.68R
#DUFUR 9E       N/A         23  22  96  CALM    30.78R
#GRASS VALLEY 1SN/A         23  22  96  CALM    30.54R
#KENT DOT       N/A         22  17  81  E2      N/A
#MAUPIN SCHOOL  N/A         29  23  78  CALM    30.69R
#MORO SCHOOL    N/A         25  25  100 E2      30.57R
#SHANIKO 5WSW   N/A         18  -67  1  CALM    N/A
#SHANIKO 4NW    N/A         18  16  92  CALM    30.46F
#TYGH VALLEY 2NEN/A         28  24  85  CALM    30.71R
#WAPANITIA AIRPON/A         24  22  92  CALM    30.73R
#WASCO DOT      N/A         29  25  85  E10     N/A
#WASCO 5NE      N/A         28  19  68  NE6     30.71S
$$

ORZ511-110710-
CENTRAL OREGON

CITY            SKY/WX      TMP DP  RH  WIND    PRES   REMARKS
BEND AIRPORT    FRZFOG      19  18  96  CALM    30.50S VSB<1/4
PRINEVILLE AP   FRZFOG      19  18  96  CALM    30.51S VSB 1/4
REDMOND AIRPORT CLOUDY      21  20  96  CALM    30.51S FOG
#ASHWOOD SCHOOL N/A         23  20  88  CALM    30.48R
#BEND 1SW       N/A         18  15  88  CALM    N/A
#BEND-AWBREY    N/A         20  18  92  CALM    30.67F
#BEND-KIM LN    N/A         21  19  92  CALM    30.66S
#CULVER         N/A         22  19  88  CALM    30.56R
#CULVER 8W      N/A         23  16  74  CALM    30.48R
#LAKE BILLY CHINN/A         24  N/A N/A CALM    30.63S
#MADRAS 4S      N/A         23   3  41  E2      N/A
#POWELL BUTTE   N/A         17  13  84  W1      30.38S
#PRINEVILLE     N/A         15  12  88  CALM    30.79S
#PRINEVILLE 3N  N/A         18  16  92  CALM    30.70R
#WARM SPRINGS   N/A         28  22  78  CALM    30.51R

$$


ORZ509-110710-
EAST SLOPES OF OREGON CASCADES

CITY            SKY/WX      TMP DP  RH  WIND    PRES   REMARKS
SISTERS AWOS    N/A         21  19  92  CALM    N/A
#BLUE BOX PASS  N/A         17  N/A N/A S2      N/A
#CAMP SHERMAN   N/A         23  19  84  CALM    30.75F
#LA PINE DOT    N/A         15  12  88  CALM    N/A
#LA PINE 4NW    N/A         14   9  80  CALM    30.72S
#LAVA BUTTE DOT N/A         20  17  88  SE2     N/A
#SISTERS ODOT   N/A         20  20  100 CALM    N/A
#SISTERS 3N     N/A         21  15  77  CALM    30.47S
#SUNRIVER       N/A         20  18  92  CALM    30.65S
#TUMALO 3W      N/A         19  17  92  CALM    30.57S
#WANOGA BUTTE D N/A         45  -6  11  W6      N/A

$$

ORZ044-110710-
LOWER COLUMBIA BASIN...OREGON

CITY            SKY/WX      TMP DP  RH  WIND    PRES   REMARKS
HERMISTON       CLOUDY      30  27  88  W3      30.68S
6HR MIN TEMP:   30; 6HR MAX TEMP:   31;

#BOARDMAN SCHOOLN/A         32  28  85  CALM    30.71R
#BOARDMAN 8SW   N/A         30  27  88  CALM    30.73R
#ECHO 8SW       N/A         29  29  100 CALM    30.69R
#I-84 EX 198 DOTN/A         28  26  92  E2      N/A
#IONE SCHOOL    N/A         28  14  55  CALM    30.74R
$$

ORZ507-110710-
NORTHERN FOOTHILLS OF THE BLUES

CITY            SKY/WX      TMP DP  RH  WIND    PRES   REMARKS
PENDLETON AIRPT CLOUDY      27  25  92  NW6     30.63R
#ADAMS 3WNW     N/A         27  24  88  NE3     30.72R
#ATHENA         N/A         26  24  92  CALM    30.75R
#CAYUSE         N/A         28  25  88  N2      30.71R
#HELIX SCHOOL   N/A         26  24  92  N1      30.72R
#HELIX 3N       N/A         25  24  96  CALM    30.55R
#HOLDMAN 5SE    N/A         28  26  92  W1      30.60S
#HOLDMAN 6E     N/A         26  25  96  NE2     30.51R
#M-F GROVE ELEM N/A         29  23  78  CALM    30.62R
#M-FREEWATER 5SEN/A         28  24  85  CALM    30.61R
#PENDLETON DNTN N/A         30  23  75  CALM    30.60S
#PDT AQUATIC CTRN/A         28  24  85  NW2     30.67R
#PDT SUNRIDGE   N/A         28  25  88  CALM    30.66R
#PENDLETON 6SE  N/A         28  25  88  NE1     30.68R
#PENDLETON 7NW  N/A         29  24  81  CALM    28.86R
#PILOT ROCK 1S  N/A         26  20  78  CALM    30.60R
#PILOT ROCK     N/A         27  24  88  CALM    30.60R
#TUTUILLA       N/A         26  23  88  CALM    30.68R
#UMAPINE 2E     N/A         30  27  88  N1      30.66R
#WESTON SCHOOL  N/A         25  21  84  NE1     30.55S

$$

ORZ508-110710-
SOUTHERN FOOTHILLS OF THE BLUES

CITY            SKY/WX      TMP DP  RH  WIND    PRES   REMARKS
LEXINGTON       CLOUDY      27  25  92  CALM    30.66R
#AJAX           N/A         23  16  74  N2      30.68S
#CONDON 5W      N/A         19  17  92  CALM    30.47R
#FOSSIL SCHOOL  N/A         23  21  92  CALM    30.44R
#HEPPNER EOC    N/A         24  21  88  CALM    30.66R
#HEPPNER 4NE    N/A         21  19  92  CALM    30.72R
#LEXINGTON 2SE  N/A         27  23  85  CALM    30.59R
#MIKKALO        N/A         26  22  85  NE1     30.71R
#OLEX 4N        N/A         28  25  88  NE2     30.61S
#RUGGS 5NE      N/A         21  21  100 CALM    30.72R
#RUGGS 2SW      N/A         20  18  92  CALM    30.76R

$$

ORZ502-503-110710-
BLUE MOUNTAINS

CITY            SKY/WX      TMP DP  RH  WIND    PRES   REMARKS
MEACHAM         PTCLDY      24  17  74  VRB3    30.47S
6HR MIN TEMP:   24; 6HR MAX TEMP:   29;

#BATTLE MTN DOT N/A         26  17  68  S6      N/A
#GRANITE        N/A         10  N/A N/A CALM    30.61S
#LADD CYN SMT   N/A         21  19  92  SE22G29 N/A    WCI  5
#LADD CREEK ODOTN/A         23  18  81  S8      N/A
#LONG CREEK HS  N/A         22  22  100 CALM    30.49R
#N POWDER DOT   N/A         14  12  92  W5      N/A
#PIKES PEAK     N/A         18  15  88  CALM    27.99S
#SUMMERVILLE 5NWN/A         15  13  92  CALM    28.50S
#TOLLGATE       N/A         21  16  81  NE1     30.26S
#TROY SCHOOL    N/A         25  22  88  NW5     30.59R
#UKIAH          N/A         13  11  91  CALM    30.64R
#WESTON 4E      N/A         21  19  92  CALM    30.69R
$$

ORZ505-110710-
JOHN DAY BASIN

CITY            SKY/WX      TMP DP  RH  WIND    PRES   REMARKS
JOHN DAY        PTCLDY      31  20  63  E9      30.49R
#ANTELOPE 9ESE  N/A         27  22  81  CALM    N/A
#MITCHELL 8NW   N/A         18  16  92  CALM    30.78R
#MONUMENT HS    N/A         17  12  80  CALM    30.50R
#MT. VERNON 5SE N/A         31  21  66  CALM    30.41S
#SPRAY SCHOOL   N/A         23  N/A N/A CALM    N/A
#WINLOCK        N/A         26  23  88  CALM    30.44R
$$

ORZ506-110710-
OCHOCO AND JOHN DAY HIGHLANDS

CITY            SKY/WX      TMP DP  RH  WIND    PRES   REMARKS
#HORSE RIDGE DO N/A         20  13  74  SE13    N/A    WCI  7
#IZEE 6NW       N/A         17  14  88  S1      N/A
#PAULINA ODOT   N/A         15  13  92  CALM    N/A
#PINE MTN OBS   N/A         44   3  18  S12     N/A    WCI 38
#PRAIRIE CITY   N/A         18  11  74  CALM    30.64S
#SENECA         N/A         10  N/A N/A CALM    N/A
#SENECA 9NW     N/A         13  10  87  CALM    30.81R
$$

ORZ049-110710-
GRANDE RONDE VALLEY

CITY            SKY/WX      TMP DP  RH  WIND    PRES   REMARKS
LA GRANDE       PTCLDY      20  18  92  N8      30.60R
#COVE SCHOOL    N/A         19  16  88  CALM    30.55S
#COVE 6NW       N/A         25  21  84  SE6     30.74R
#ELGIN 3N       N/A         18  10  70  NE1     30.53S
#ELGIN 1E       N/A         21  16  81  CALM    N/A
#IMBLER SCHOOL  N/A         25  20  81  CALM    30.53R
#ISLAND CITY 4N N/A         28  25  88  CALM    30.39R
#LADD CYN DOT   N/A         25  21  84  S2G24   N/A
#UNION 1S       N/A         25  21  84  S9      30.76R
$$

ORZ050-110710-
WALLOWA COUNTY

CITY            SKY/WX      TMP DP  RH  WIND    PRES   REMARKS
JOSEPH AIRPORT  FOG         16  14  92  CALM    30.53S VSB 3/4
#ENTERPRISE HS  N/A         15  13  92  CALM    30.68S
#IMNAHA SCHOOL  N/A         22  19  88  SE1     30.58S
#IMNAHA 10S     N/A         22  18  84  SW5     30.51S
#JOSEPH         N/A         16   9  73  CALM    30.92R
#JOSEPH 3N      N/A          9   3  76  CALM    30.50S
#JOSEPH 3W      N/A         19  19  100 CALM    30.90S
#LOSTINE        N/A         11   9  91  CALM    30.59R
#LOSTINE 3SE    N/A         13  11  91  CALM    30.57S
#MT HOWARD 8000 N/A         44  -32  3  CALM    30.55S
#PROMISE 1S     N/A         18  15  88  CALM    30.84S
#WALLOWA SCHOOL N/A         13  11  91  CALM    30.53S



$$



USA.gov is the U.S. government's official web portal to all federal, state and local government web resources and services.